{"data":{"norad_id":53735,"intl_designator":"2022-107AM","name":"STARLINK-4618","alt_names":[],"object_type":"PAYLOAD","status":"ACTIVE","operator":null,"country":"US","launch_date":"2022-09-05","launch_site_code":"AFETR","launch_vehicle":null,"mission":null,"orbit_class":"UNKNOWN","rcs_meters":null,"size_class":null,"mass_kg":null,"dimensions":null,"purposes":["comms"],"wikipedia_slug":null,"has_3d_model":false,"image_url":null,"decayed_at":null,"tle_current":{"epoch":"2026-05-25T02:45:15.589728Z","epoch_age_seconds":72043,"freshness":"FRESH","line1":"1 53735U 22107AM  26145.11476377  .00000525  00000+0  51099-4 0  9998","line2":"2 53735  53.2159 280.8471 0001310  91.3194 268.7948 15.08839874205983","mean_motion":15.08839874,"eccentricity":0.000131,"inclination_deg":53.2159,"raan_deg":280.8471,"arg_perigee_deg":91.3194,"mean_anomaly_deg":268.7948,"bstar":5.1099e-5,"rev_number":20598,"period_min":95.437562647552,"perigee_km":538.83753171432,"apogee_km":540.65001647713,"semimajor_km":6917.8807740957,"source":"CELESTRAK","updated_at":"2026-05-25T13:38:17.538467Z"}}}